TimeCST,TemperatureF,Dew PointF,Humidity,Sea Level PressureIn,VisibilityMPH,Wind Direction,Wind SpeedMPH,Gust SpeedMPH,PrecipitationIn,Events,Conditions,WindDirDegrees,DateUTC
12:55 AM,8.2,6.3,92,30.30,10.0,Calm,Calm,-,N/A,,Clear,0,2012-12-30 06:55:00
1:51 AM,10.4,8.6,92,30.30,10.0,South,4.6,-,N/A,Snow,Light Snow,180,2012-12-30 07:51:00
1:55 AM,11.7,9.7,92,30.30,10.0,South,3.5,-,0.00,Snow,Light Snow,180,2012-12-30 07:55:00
2:04 AM,12.2,10.4,92,30.30,10.0,Calm,Calm,-,N/A,,Clear,0,2012-12-30 08:04:00
2:55 AM,10.6,8.1,90,30.29,10.0,Calm,Calm,-,0.00,,Clear,0,2012-12-30 08:55:00
3:55 AM,10.9,9.3,93,30.26,10.0,Calm,Calm,-,N/A,,Clear,0,2012-12-30 09:55:00
4:55 AM,9.5,7.5,92,30.27,10.0,Calm,Calm,-,N/A,,Clear,0,2012-12-30 10:55:00
5:55 AM,10.0,7.7,90,30.27,10.0,Calm,Calm,-,N/A,,Clear,0,2012-12-30 11:55:00
6:55 AM,9.5,7.5,92,30.26,10.0,East,3.5,-,N/A,,Clear,100,2012-12-30 12:55:00
7:55 AM,12.7,11.3,94,30.24,10.0,ESE,3.5,-,N/A,,Clear,120,2012-12-30 13:55:00
8:55 AM,14.7,13.1,93,30.22,10.0,SSE,3.5,-,N/A,,Clear,150,2012-12-30 14:55:00
9:55 AM,23.0,18.3,82,30.20,10.0,SSE,8.1,-,N/A,,Clear,150,2012-12-30 15:55:00
10:55 AM,28.4,21.0,74,30.17,10.0,SE,6.9,-,N/A,,Clear,130,2012-12-30 16:55:00
11:55 AM,34.2,24.6,68,30.09,10.0,SSE,13.8,-,N/A,,Clear,150,2012-12-30 17:55:00
12:55 PM,40.6,23.9,51,30.03,10.0,South,20.7,-,N/A,,Clear,180,2012-12-30 18:55:00
1:55 PM,41.4,25.5,53,30.01,10.0,South,12.7,-,N/A,,Clear,180,2012-12-30 19:55:00
2:55 PM,44.8,23.9,44,29.98,10.0,South,13.8,26.5,N/A,,Clear,190,2012-12-30 20:55:00
3:55 PM,42.3,26.4,54,30.01,10.0,SSW,8.1,-,N/A,,Clear,210,2012-12-30 21:55:00
4:55 PM,41.5,25.5,53,30.02,10.0,SW,6.9,-,N/A,,Clear,220,2012-12-30 22:55:00
5:55 PM,38.7,27.1,63,30.06,10.0,West,12.7,19.6,N/A,,Clear,260,2012-12-30 23:55:00
6:55 PM,34.9,25.9,70,30.07,10.0,WSW,9.2,-,N/A,,Clear,250,2012-12-31 00:55:00
7:55 PM,33.1,24.6,71,30.08,10.0,West,12.7,-,N/A,,Clear,270,2012-12-31 01:55:00
8:55 PM,31.8,23.5,71,30.10,10.0,West,8.1,-,N/A,,Clear,270,2012-12-31 02:55:00
9:55 PM,30.9,19.8,63,30.11,10.0,WNW,8.1,-,N/A,,Partly Cloudy,300,2012-12-31 03:55:00
10:55 PM,27.9,18.9,69,30.12,10.0,WNW,13.8,-,N/A,,Clear,290,2012-12-31 04:55:00
11:55 PM,25.3,17.4,72,30.13,10.0,NW,9.2,-,N/A,,Clear,310,2012-12-31 05:55:00